カタログに戻る

SL-8 DEB

運用中LEO
NORAD 21137·DEBRIS·🇷🇺 Russia

打ち上げ Feb 12, 1991 から Plesetsk Cosmodrome

Loading…

次のパス (今後24時間)

TLE

最新Source: Space-Track

元期: Sep 13, 2026, 18:52 UTC

1 21137U 91009P   26256.78640271 -.00000017  00000-0 -16706-4 0  9993
2 21137  74.0441 138.7388 0151567 220.2971 210.9785 12.18046949581316

AllMySatでSL-8 DEBをリアルタイム追跡

Download on the App Store